Location: Goettingen
(51.5300°N, 9.9433°E)
Time: 10:51:49
(UTC+02:00)

ISS - Pass Details

Date: 25 May 2019
Orbit: 407 x 410 km, 51.6° (Epoch: 21 May)

Event Time Altitude Azimuth Distance (km) Brightness Sun altitude
Rises 00:11:46 0° 281° (W) 2,337 0.4 -16.2°
Reaches altitude 10° 00:13:52 10° 279° (W) 1,475 -0.7 -16.3°
Maximum altitude 00:17:09 68° 197° (SSW) 443 -3.9 -16.4°
Enters shadow 00:18:12 39° 126° (SE) 632 -3.3 -16.5°
